Simultaneous Nadir Overpasses (SNOs) Predictions

Prediction of SNOs between GOES-17 and NOAA-19 Satellite Orbit:

Table of predicted SNOs for the next 14.0 days since TLE Epoch: 8/3/2024
Index Date Time (GOES-17) GOES-17 Lat,Lon NOAA-19 Lat,Lon Distance(km) Time Diff (sec)
1 08/03/2024 04:13:51 -0.00,-104.67 0.29,-103.30 155.25 4
2 08/04/2024 04:00:16 0.00,-104.67 1.03,-100.32 497.56 80
3 08/05/2024 16:34:32 0.00,-104.71 0.72,-107.90 363.18 80
4 08/06/2024 16:22:12 -0.00,-104.72 0.01,-104.91 20.64 80
5 08/07/2024 16:07:12 -0.00,-104.73 -0.64,-101.90 322.47 80
6 08/10/2024 04:29:21 -0.00,-104.72 -0.40,-106.55 208.61 80
7 08/11/2024 04:14:22 0.00,-104.72 0.30,-103.55 134.25 80
8 08/12/2024 04:02:01 0.00,-104.73 0.94,-100.55 476.99 80
9 08/13/2024 16:36:15 0.01,-104.77 0.79,-108.12 382.68 80
10 08/14/2024 16:23:55 0.01,-104.78 0.07,-105.13 40.06 80
11 08/15/2024 16:08:55 0.00,-104.78 -0.60,-102.13 302.59 80
